Other Public Products
Issued by NWS Grand Forks, ND

Home | Current Version | Previous Version | Graphics & Text | Print | Product List | Glossary On
Versions: 1 2 3 4 5 6 7 8 9 10 11 12 13 14 15 16 17 18 19 20 21 22 23 24 25 26 27 28 29 30 31 32 33 34 35 36 37 38 39 40 41 42 43 44 45 46 47 48 49 50
000
FPUS83 KFGF 041631
OPUFGF
PRAIRIE TO PINES WEATHER ROUNDUP
NATIONAL WEATHER SERVICE EASTERN NORTH DAKOTA/GRAND FORKS ND
1100 AM CDT MON MAY 04 2015

 **SATELLITE DATA USED TO AUGMENT SKY COVER AT AUTOMATED STATIONS**
 *****  WEATHER ACROSS EASTERN NORTH DAKOTA  *****

CITY           SKY/WX    TMP DP  RH WIND       PRES   REMARKS
GRAND FORKS    MOSUNNY   61  32  33 SE5       30.22S
GRAND FORKS AF SUNNY     60  36  40 S5        30.22S
GRAND CITY NWS   N/A     54 N/A N/A SW2         N/A
BUXTON           N/A     64  38  38 N158        N/A
DEVILS LAKE    SUNNY     59  34  38 SW9       30.22R
FARGO          MOSUNNY   62  31  31 CALM      30.22R
WAHPETON ARPT  PTSUNNY   61  32  33 NW5       30.23R
$$

 *****  WEATHER ACROSS CENTRAL AND WESTERN NORTH DAKOTA  *****

CITY           SKY/WX    TMP DP  RH WIND       PRES   REMARKS
JAMESTOWN      PTSUNNY   59  32  36 CALM      30.23R
BISMARCK       MOSUNNY   57  31  37 CALM      30.24S
MINOT          MOSUNNY   61  22  22 S10       30.20R
MINOT AFB      SUNNY     64  25  22 SW9       30.19R
GARRISON         N/A     59  29  31 S13       30.21R
WILLISTON      MOSUNNY   61  27  27 S9        30.16F
DICKINSON      MOSUNNY   60  25  26 S25G32    30.17F
HETTINGER      PTSUNNY   55  32  41 S22G29    30.22S
$$

 *****  OTHER OBSERVATIONS NORTHEAST NORTH DAKOTA  *****

CITY           SKY/WX    TMP DP  RH WIND       PRES   REMARKS
WALHALLA       FAIR      61  30  31 SW7       30.20F
LANGDON        FAIR      61  28  29 SW10      30.21S
CAVALIER       FAIR      59  32  36 E3        30.21S
GRAFTON        FAIR      61  36  39 S9        30.23S
CANDO          FAIR      61  28  29 SW9       30.22R
FORT TOTTEN    NOT AVBL
ROLLA          NOT AVBL
RUGBY          NOT AVBL
 ***** THE ABOVE OBSERVATIONS ARE NON NWS ARE NOT QUALITY
        CONTROLLED AND MAY MIS-REPORT RAIN FOR SNOW...
$$

 *****  OTHER OBSERVATIONS SOUTHEAST NORTH DAKOTA *****

CITY           SKY/WX    TMP DP  RH WIND       PRES   REMARKS
COOPERSTOWN    NOT AVBL
VALLEY CITY    FAIR      59  28  31 NE6       30.24R
OAKES            N/A     57  36  44 W3        30.24R
GWINNER        SUNNY     61  32  33 N5        30.24S
SHEYENNE NWR     N/A     65  35  33 CALM      29.95S
BUFFALO        NOT AVBL
WYNDMERE       NOT AVBL
 ***** THE ABOVE OBSERVATIONS ARE NON NWS ARE NOT QUALITY
       CONTROLLED AND MAY MIS-REPORT RAIN FOR SNOW...
$$

  *****  WEATHER ACROSS NORTHERN MINNESOTA  *****

CITY           SKY/WX    TMP DP  RH WIND       PRES   REMARKS
FLAG ISLAND    SUNNY     52  39  62 S10       30.21S
WARROAD        SUNNY     54  37  54 NE7       30.23S
ROSEAU         SUNNY     57  30  35 S3        30.23R
HALLOCK        SUNNY     61  30  31 SW10      30.21F
THF RVR FALLS  SUNNY     57  28  33 S3        30.24R
HALSTAD          N/A     64  32  29 W5          N/A
FOSSTON        SUNNY     61  28  29 CALM      30.24S
BAUDETTE       SUNNY     55  28  35 N6        30.22R
WASKISH        SUNNY     55  41  58 CALM      30.23S
CROOKSTON      SUNNY     61  34  36 CALM      30.23S
$$
  *****  WEATHER ACROSS CENTRAL AND WEST MINNESOTA  *****

CITY           SKY/WX    TMP DP  RH WIND       PRES   REMARKS
BEMIDJI        SUNNY     57  28  33 CALM      30.24R
PARK RAPIDS    MOSUNNY   57  35  43 SE3       30.22R
WADENA         PTSUNNY   59  36  41 CALM      30.22S
DETROIT LAKES  MOSUNNY   59  34  38 CALM      30.24S
MOORHEAD       MOSUNNY   61  30  31 SW5       30.23S
FERGUS FALLS   PTSUNNY   61  32  33 CALM      30.23R
ELBOW LAKE     FAIR      62  30  30 N3        30.21S
MORRIS MN      MOSUNNY   66  28  24 N7G16     30.20R
STAPLES        MOSUNNY   61  30  31 NE3       30.22S
WHEATON        MOSUNNY   61  30  31 CALM      30.23S
$$
  *****  WEATHER ELSEWHERE ACROSS MINNESOTA  *****

CITY           SKY/WX    TMP DP  RH WIND       PRES   REMARKS
DULUTH         SUNNY     59  29  31 NW12G18   30.17R
INTRNTL FALLS  SUNNY     57  28  33 N7        30.20R
ELY            SUNNY     55  30  38 N7        30.19R
CLOQUET        SUNNY     61  27  27 NW14G21   30.19R
BRAINERD       MOSUNNY   60  35  39 N8        30.22R
HIBBING        SUNNY     59  25  27 N14       30.20R
ALEXANDRIA     MOSUNNY   62  32  32 N7        30.22R
SAINT CLOUD    SUNNY     64  32  30 NE8       30.19R
MINNEAPOLIS    MOSUNNY   64  33  31 NE16G22   30.19R
$$

  *****  WEATHER ACROSS SOUTH DAKOTA  *****

CITY           SKY/WX    TMP DP  RH WIND       PRES   REMARKS
SIOUX FALLS    PTSUNNY   66  32  28 E17       30.18R
BROOKINGS      MOSUNNY   63  30  29 E10       30.21R
WATERTOWN      PTSUNNY   64  26  23 E9        30.20R
HURON          MOSUNNY   66  31  27 N9        30.20S
SISSETON         N/A     65  29  25 E8        30.20R
ABERDEEN       PTSUNNY   66  29  24 N5        30.22R
MITCHELL       SUNNY     67  26  21 NE12      30.18S
PIERRE         CLOUDY    60  27  28 VRB6      30.21S
MOBRIDGE       CLOUDY    56  36  47 CALM      30.21F
RAPID CITY     LGT RAIN  46  40  79 NE5       30.23R
$$

  *****  SOME WEATHER IN NEARBY STATES *****

CITY           SKY/WX    TMP DP  RH WIND       PRES   REMARKS
GLASGOW MT     SUNNY     59  30  33 SE20      30.05S
GREAT FALLS MT SUNNY     58  37  45 VRB3      29.94S
CHEYENNE WY    CLOUDY    48  39  71 S10       30.15R
SCOTTSBLUFF NE CLOUDY    51  41  68 SE8       30.16S
OMAHA NE       CLOUDY    62  51  67 N9        30.08S
DES MOINES IA  CLOUDY    68  58  70 NE10      30.08R
DAVENPORT IA   CLOUDY    67  61  81 NE8       30.10R
CHICAGO IL     CLOUDY    69  58  67 W10       30.09S
EAU CLAIRE WI  SUNNY     64  35  34 N13       30.16R
LA CROSSE WI   SUNNY     69  36  29 N10       30.13R
$$

  *****  SOME NATIONAL WEATHER *****

CITY           SKY/WX    TMP DP  RH WIND       PRES   REMARKS
LA GUARDIA NY  MOSUNNY   80  46  30 SW7       30.20F
RALEIGH NC     MOSUNNY   77  57  50 W12G17    30.32S
ATLANTA GA     MOSUNNY   77  50  38 S8        30.32R
NEW ORLEANS LA PTSUNNY   78  59  51 E10G20    30.18R
OKLAHOMA CITY  PTSUNNY   75  63  66 S16G22    30.07R
ALBUQUERQUE NM MOSUNNY   67  39  35 W3        30.04F
SALT LAKE CITY MOSUNNY   67  41  38 SE3       29.95F
LOS ANGELES CA PTSUNNY   59  51  75 W7        29.97R
BOISE ID       SUNNY     68  34  28 SE10      29.89S
SEATTLE WA     MOSUNNY   50  45  83 S12       29.92R
$$

*** WEATHER ACROSS MANITOBA...SASKATCHEWAN AND ONTARIO ***
                ***ONTARIO***

CITY           SKY/WX    TMP DP  RH WIND       PRES   REMARKS
GERALDTON      PTSUNNY   50  41  71 NW8       30.05R
THUNDER BAY    MOSUNNY   61  34  36 NW10G17   30.12R
SIOUX LOOKOUT  MOSUNNY   48  37  66 NW9       30.17R
TORONTO        CLOUDY    73  48  40 SW16G24   30.02F
BIG TROUT LK   PTSUNNY   39  36  87 W9        29.98S
PICKLE LAKE    PTSUNNY   46  30  53 W17G25    30.07S
DRYDEN         SUNNY     52  34  50 SW7       30.18S
KENORA         MOSUNNY   52  32  46 W6        30.21R
$$
                *** MANITOBA***

CITY           SKY/WX    TMP DP  RH WIND       PRES   REMARKS
BRANDON        MOSUNNY   55  34  44 SW3       30.21R
DAUPHIN        SUNNY     54  34  47 VRB3      30.19S
ISLAND LAKE    PTSUNNY   41  30  65 W10       30.06S
PILOT MOUND      N/A     57  27  30 SW7         N/A
THE PAS        PTSUNNY   43  23  45 NW10      30.17S
THOMPSON       FLURRIES  34  27  75 W15       30.07R WCI  24
WINNIPEG       MOSUNNY   59  34  38 SW7G17    30.20S
LYNN LAKE      FLURRIES  28  21  74 W12G21    30.08R WCI  18
CHURCHILL      FLURRIES  25  18  74 NW15G21   29.90S WCI  12
GILLAM         CLOUDY    32  19  59 W14       30.00S WCI  22
$$
                ***SASKATCHEWAN***

CITY           SKY/WX    TMP DP  RH WIND       PRES   REMARKS
ESTEVAN        MOSUNNY   57  30  35 S9        30.18S
KINDERSLEY     MOSUNNY   57  28  33 SE15G25   30.03F
LLOYDMINSTER   CLOUDY    48  36  61 E6        30.05F
PRINCE ALBERT  MOSUNNY   48  27  43 S10       30.13
REGINA         SUNNY     55  32  41 S9        30.15F



USA.gov is the U.S. government's official web portal to all federal, state and local government web resources and services.